Location: ????????
(55.1360°N, 38.4054°E)
Time: 14:57:22
(UTC+00:00)

Daily predictions for brighter satellites

Satellite Brightness Start Highest point End
(mag) Time Altitude Azimuth Time Altitude Azimuth Time Altitude Azimuth
Cosmos 1943 Rocket 4.0 13:35:57 10° NW 13:39:15 16° N 13:42:32 10° NNE
Cosmos 2084 4.3 13:35:33 10° W 13:39:26 36° NNW 13:43:17 10° NE
Thor Agena Rocket 3.9 13:38:02 10° SE 13:42:54 44° ENE 13:47:44 10° N
Cosmos 1825 Rocket 3.9 13:41:18 10° N 13:45:26 42° ENE 13:49:32 10° SE
H-2A R/B 3.9 13:42:25 10° N 13:45:38 29° WNW 13:48:48 10° WSW
IGS 5A 3.6 13:44:10 10° SE 13:48:00 48° ENE 13:51:51 10° N
Cosmos 1484 Rocket 2.6 13:45:27 10° SSE 13:48:50 54° ENE 13:52:15 10° N
Cosmos 1758 Rocket 4.0 13:47:04 10° NNW 13:51:21 66° W 13:55:35 10° S
NOSS 3-2 (A) 3.4 13:47:23 10° SW 13:52:41 79° NW 13:59:16 10° NE
SL-16 R/B 2.9 13:46:42 10° NNE 13:52:42 47° E 13:58:37 10° S
Cosmos 2228 3.4 13:48:30 10° SSW 13:52:43 63° WNW 13:56:58 10° N
Cosmos 1634 Rocket 4.2 13:46:39 10° SSW 13:52:49 79° WNW 13:59:02 10° N
Cosmos 2098 Rocket 3.4 13:49:48 10° S 13:54:31 71° E 13:59:58 10° NNE
IRIDIUM 104 4.4 13:49:38 10° N 13:54:48 57° E 13:59:57 10° SSE
Meteor 1-5 Rocket 4.3 13:50:04 10° N 13:55:17 49° ENE 14:00:37 10° SE
Cosmos 2279 Rocket 4.0 13:51:01 10° S 13:57:15 83° E 14:03:33 10° NNE
NOSS 3-2 (C) 3.4 13:53:11 10° SSW 13:58:19 64° SE 14:04:34 10° NE
Cosmos 2151 3.0 13:55:04 10° NNW 13:59:15 85° W 14:03:26 10° S
Cosmos 1486 Rocket 4.0 13:55:10 10° SSW 14:00:25 89° ESE 14:05:44 10° NNE
Cosmos 2227 Rocket 2.6 13:55:29 10° NW 14:01:08 71° WSW 14:06:44 10° SSE
IRIDIUM 114 4.3 13:58:45 10° N 14:03:59 67° E 14:09:11 10° SSE
NOSS 2-2 (D) 3.1 14:02:35 10° WSW 14:05:38 54° NNW 14:08:19 12° NE
Cosmos 2369 Rocket 3.8 14:01:10 10° W 14:05:43 24° NNW 14:10:18 10° NNE
Cosmos 1933 3.6 14:03:42 10° SSE 14:07:19 42° E 14:10:57 10° NNE
Cosmos 1656 4.0 14:03:11 10° SW 14:08:49 69° NW 14:14:32 10° NNE
Cosmos 1697 Rocket 2.8 14:06:57 10° SSW 14:12:26 59° ESE 14:17:56 10° NE
Cosmos-2242 4.4 14:09:34 10° SE 14:12:32 19° E 14:14:50 13° NE
IRIDIUM 103 4.3 14:07:55 10° N 14:13:11 78° E 14:18:24 10° S
Meteor 1-25 Rocket 4.3 14:07:37 10° NNW 14:13:29 89° ENE 14:19:14 10° SSE
SMAP 3.1 14:12:19 10° SSE 14:16:55 62° ENE 14:21:32 10° N
CENTAUR R/B 3.2 14:12:06 10° W 14:18:21 52° NNW 14:25:16 13° ENE
Landsat 7 3.9 14:15:34 10° SE 14:20:05 54° ENE 14:24:38 10° N
CZ-2D R/B 3.3 14:17:23 10° SE 14:20:17 35° ENE 14:23:13 10° N
Cosmos 1655 Rocket 4.0 14:14:13 10° N 14:20:25 62° ENE 14:26:34 10° SSE
NOSS 2-3 (C) 4.1 14:18:01 10° S 14:21:05 30° SE 14:23:21 16° ENE
Resurs 01 Rocket 3.5 14:22:47 12° NE 14:22:47 12° NE 14:23:43 10° NNE
Cosmos 2278 Rocket 3.9 14:19:07 10° NW 14:22:36 16° N 14:25:36 11° NE
Aureole 1 Rocket 4.3 14:18:03 10° SSE 14:22:40 36° E 14:28:00 11° NE
COSMOS 2455 4.4 14:19:44 10° SE 14:23:08 16° ESE 14:25:08 13° E
Cosmos 1606 Rocket 3.6 14:19:32 10° S 14:23:53 58° E 14:28:16 10° NNE
Cosmos 1680 Rocket 3.9 14:19:44 10° NNW 14:24:41 41° NE 14:29:39 10° ESE
Cosmos 2058 Rocket 4.1 14:21:00 10° SE 14:24:42 26° E 14:27:51 13° NE
SJ-12 3.9 14:22:54 10° SE 14:26:32 46° ENE 14:30:12 10° N
ARIANE 5 R/B 2.5 14:21:32 10° SSE 14:26:34 62° ENE 14:31:42 10° NNW
Lacrosse 4 Rocket 3.2 14:24:00 10° WNW 14:26:53 19° NNW 14:29:44 10° NNE
NOSS 2-3 (D) 3.8 14:24:51 10° SSW 14:28:19 41° SE 14:30:46 19° ENE
Cosmos 2266 Rocket 4.2 14:22:52 10° NNW 14:29:00 73° W 14:35:01 10° S
Meteor 1-28 Rocket 2.8 14:27:28 10° NNE 14:30:49 63° ESE 14:34:06 10° S
NOSS 2-3 (E) 3.6 14:27:22 10° SSW 14:30:52 46° SE 14:33:18 19° ENE
IRIDIUM 106 4.5 14:26:15 10° N 14:31:30 79° W 14:36:42 10° S
MOS 1 Rocket 3.6 14:28:25 10° SE 14:33:25 56° ENE 14:38:39 10° N
Cosmos 1461 3.1 14:30:38 10° WSW 14:34:31 58° NW 14:37:21 18° NE
NOSS 2-2 (C) 4.2 14:36:26 10° WNW 14:39:02 25° NNW 14:40:33 18° NNE
NOSS 2-2 (E) 3.6 14:36:59 10° W 14:39:52 38° NNW 14:41:32 20° NNE
Resurs 1-3 4.3 14:38:31 10° ESE 14:42:13 29° ENE 14:45:57 10° N
Cosmos 1726 Rocket 3.6 14:39:51 10° S 14:44:25 69° E 14:48:55 10° NNE
Okean 1 4.0 14:42:05 10° SSE 14:45:06 26° E 14:45:27 25° E
Cosmos 1844 3.9 14:40:39 10° NNW 14:46:02 45° NE 14:51:23 10° ESE
PSLV R/B 4.2 14:47:24 12° ESE 14:50:32 28° ENE 14:54:04 10° N
Cosmos 2082 3.8 14:45:50 10° NW 14:51:35 84° WSW 14:57:19 10° SSE
YAOGAN 1 3.1 14:49:42 10° SE 14:53:35 35° ENE 14:57:29 10° N
USA 81 4.0 14:48:54 10° N 14:54:11 67° E 14:59:25 10° SSE
Nadezhda 2 Rocket 4.4 14:50:19 10° N 14:56:23 59° ENE 15:02:23 10° SSE
Gbstr 26 Del rocket 3.4 14:53:58 10° WSW 14:57:52 46° S 14:59:39 26° ESE
COSMO-SKYMED 1 4.3 15:01:15 15° SE 15:01:15 15° SE 15:02:29 10° SE
Meteor 2-10 4.1 14:54:11 10° NNW 14:59:37 90° W 15:05:14 10° SSE
SPOT 1/Viking Rocket 3.5 14:55:31 10° SSE 15:00:38 61° ENE 15:05:46 10° N
USA 238 DEB 3.7 14:54:37 10° SSW 15:00:41 60° SE 15:04:54 23° ENE
USA 238 3.7 14:54:42 10° SSW 15:00:47 60° SE 15:04:59 23° ENE
Cosmos 1553 Rocket 4.3 14:56:36 10° SSE 15:02:25 44° E 15:08:21 10° NNE
USA 215 3.3 14:58:30 22° ENE 15:02:59 80° N 15:09:34 10° W
Cosmos 2227 4.1 15:00:11 10° NNW 15:05:50 67° NE 15:11:26 10° SE
IRS-1C 4.4 15:00:40 10° S 15:05:59 73° WSW 15:11:20 10° NNW
SL-16 R/B 3.4 15:03:08 10° SSE 15:07:00 21° ESE 15:07:00 21° ESE
SAR-Lupe-4 4.0 15:04:54 10° S 15:08:26 63° WSW 15:11:59 10° NNW
Lacrosse 5 rocket 0.9 15:05:25 10° WNW 15:09:08 81° NNE 15:10:14 43° E
Cosmos 1709 Rocket 4.4 15:03:38 10° N 15:09:13 35° ENE 15:14:46 10° SE
Cosmos 44 Rocket 3.3 15:05:02 10° NW 15:10:11 84° NE 15:14:55 13° SE
Cosmos 1844 Rocket 2.6 15:04:37 10° NNW 15:10:16 64° NE 15:15:55 10° SE
AQUARIUS 4.2 15:06:25 10° SSE 15:10:50 78° WSW 15:15:16 10° NNW
Cosmos 372 Rocket 3.9 15:05:48 10° SSW 15:10:53 68° ESE 15:13:54 24° NE
IRAS Rocket 4.3 15:07:10 10° SE 15:12:27 51° ENE 15:17:45 10° NNW
UNK 3.7 15:09:46 11° NNE 15:14:13 82° WNW 15:18:46 10° SSW
Cosmos 1745 Rocket 4.1 15:08:40 10° N 15:14:38 47° ENE 15:20:31 10° SE
SKYMED 2 4.0 15:15:26 38° ENE 15:16:01 40° E 15:20:06 10° SSE
Cosmos 1980 Rocket 2.1 15:12:30 10° SSW 15:18:09 81° ESE 15:21:32 25° NE
Cosmos 1805 3.2 15:15:20 10° NNW 15:18:42 67° W 15:22:02 10° S
Cosmos 2263 Rocket 3.9 15:14:14 10° NW 15:19:22 36° WSW 15:24:29 10° S
Cosmos 2219 4.2 15:15:19 10° NW 15:20:49 48° WSW 15:26:19 10° S
Cosmos 1244 Rocket 4.4 15:14:48 10° NNW 15:21:07 89° E 15:27:19 10° S
CZ-4 R/B 4.2 15:17:52 10° SSE 15:21:49 86° ENE 15:25:48 10° NNW
EXPRESS MD2 4.4 15:19:42 10° SSW 15:21:54 23° SSE 15:21:54 23° SSE
Cosmos 1536 2.6 15:19:00 10° N 15:22:44 57° ENE 15:23:10 52° ESE
Cosmos 1898 Rocket 3.4 15:17:48 10° SSW 15:22:55 69° ESE 15:25:28 30° NE
Cosmos 1943 Rocket 3.6 15:21:12 10° NNW 15:25:10 20° NNE 15:25:22 20° NNE
SL-08 R/B 4.4 15:20:47 10° N 15:27:10 85° E 15:33:31 10° SSE
Cosmos 2112 Rocket 3.9 15:22:42 10° NNW 15:27:57 87° ENE 15:33:12 10° SSE
Spot 4 Rocket 3.9 15:23:49 10° SSE 15:28:55 74° ENE 15:34:03 10° NNW
Cosmos 1386 Rocket 4.3 15:22:54 10° N 15:29:01 69° ENE 15:35:13 10° SSE
Cosmos 1937 Rocket 3.4 15:28:33 10° SSW 15:33:39 64° ESE 15:35:18 41° NE
SL-16 R/B 3.5 15:30:24 10° N 15:36:18 46° WNW 15:42:08 10° SW
Cosmos 494 Rocket 3.9 15:32:53 10° NNW 15:38:11 89° ENE 15:43:25 10° SSE
Cosmos 2369 3.6 15:36:57 10° SSW 15:42:40 74° ESE 15:44:44 41° NE
NOSS 3-2 (A) 4.2 15:38:46 10° W 15:44:17 43° N 15:46:49 31° NE
OceanSat 1 rocket 4.4 15:40:25 10° SSE 15:45:07 76° ENE 15:49:50 10° NNW
Meteor 1-26 Rocket 4.1 15:41:04 10° SSW 15:46:27 84° WNW 15:50:36 18° NNE
Cosmos-2242 3.3 15:44:54 10° SSW 15:49:07 64° WNW 15:51:12 29° N
EO 1 Delta rocket 4.5 15:47:42 41° ESE 15:49:18 53° ENE 15:55:49 10° N
NOSS 3-2 (C) 3.9 15:43:59 10° W 15:49:25 51° NNW 15:51:59 33° NE
Cosmos 2360 Rocket 4.2 15:46:28 10° SSE 15:47:09 13° SSE 15:47:09 13° SSE
Cosmos 2369 Rocket 4.1 15:48:20 10° NW 15:51:51 16° N 15:52:54 16° NNE
Cosmos 1048 Rocket 3.9 15:48:29 10° NNW 15:53:50 71° ENE 15:54:56 54° ESE
USA 281 4.0 15:56:04 31° NNE 15:56:04 31° NNE 16:01:31 10° NNW
Meteor 2-2 Rocket 4.3 15:50:24 10° SSW 15:56:01 76° WNW 16:00:32 17° N
Cosmos 1697 Rocket 3.8 15:51:27 10° WSW 15:56:41 39° NW 15:59:39 23° NNE
CZ-2D R/B 4.0 15:52:59 10° S 15:57:04 57° WSW 16:01:06 10° NNW
Resurs 01 Rocket 3.3 16:00:12 21° N 16:00:12 21° N 16:01:45 10° N
Cosmos 2058 Rocket 4.0 15:58:00 10° SSW 16:02:20 48° WNW 16:05:01 22° N
GEOS 3 Rocket 3.6 16:03:07 64° ENE 16:03:53 77° SE 16:09:16 10° SW
Aureole 1 Rocket 4.3 15:59:30 10° SW 16:04:39 54° NW 16:08:23 24° NNE
Lacrosse 4 Rocket 3.8 16:04:17 10° NNW 16:05:13 12° NNW 16:05:13 12° NNW
COSMOS 2455 2.8 16:02:01 10° SSW 16:07:57 64° SE 16:08:18 63° ESE
Cosmos 2278 Rocket 3.6 16:03:57 10° NNW 16:07:25 24° N 16:07:25 24° N
SL-24 R/B - RUBIN 2 3.9 16:03:53 10° SW 16:08:36 65° S 16:08:36 65° S
Cosmos 381 Rocket 4.4 16:03:58 10° NNW 16:10:23 67° ENE 16:11:10 61° E
CENTAUR R/B 3.4 16:03:34 10° WNW 16:10:24 47° N 16:12:22 41° NE
NOSS 2-3 (C) 4.2 16:07:38 10° WSW 16:10:25 42° WNW 16:10:25 42° WNW
Cosmos 2333 Rocket 3.3 16:11:18 10° S 16:14:32 31° SSE 16:14:32 31° SSE
NOSS 2-3 (D) 4.5 16:14:37 10° W 16:17:32 39° NW 16:17:32 39° NW
Cosmos 2322 Rocket 3.9 16:13:14 10° S 16:15:06 20° SSE 16:15:06 20° SSE
NOAA 6 4.3 16:14:47 10° S 16:19:51 65° WSW 16:24:56 10° NNW
YAOGAN 1 4.1 16:25:32 10° SSW 16:29:26 35° W 16:33:24 10° NNW
COSMO-SKYMED 1 4.5 16:37:35 22° SW 16:37:35 22° SW 16:39:07 10° SSW
Meteor 1-11 Rocket 4.1 16:39:24 10° NNW 16:45:16 65° W 16:46:44 48° SSW
Lacrosse 5 rocket 3.7 16:42:35 10° WNW 16:43:50 18° W 16:43:50 18° W
USA 215 3.1 16:45:50 83° NE 16:45:58 83° NNE 16:52:34 10° WNW
S3M 4.0 16:43:24 10° SSW 16:49:45 77° WNW 16:50:08 74° NW
SL-16 R/B 2.9 16:45:01 10° SSW 16:48:52 46° SW 16:48:52 46° SW
USA 238 DEB 4.0 16:45:28 10° WSW 16:51:47 57° NNW 16:52:20 56° N
USA 238 3.9 16:45:32 10° WSW 16:51:52 58° NNW 16:52:25 56° N
Cosmos 1844 Rocket 4.3 16:48:55 10° NW 16:53:50 31° WSW 16:58:25 12° SSW
Cosmos 1709 Rocket 4.5 16:48:56 10° NNW 16:54:53 56° W 17:00:49 10° SSW
Cosmos 1980 Rocket 3.6 16:57:44 10° W 17:02:44 31° NW 17:03:17 31° NNW
Cosmos 1943 Rocket 4.0 17:04:54 10° NNW 17:06:52 22° NNW 17:06:52 22° NNW
USA 281 4.4 17:42:56 34° NNW 17:42:56 34° NNW 17:46:24 10° NNW
Cosmos 2278 Rocket 4.5 17:47:57 10° NNW 17:49:15 17° NNW 17:49:15 17° NNW
CENTAUR R/B 3.8 17:54:28 10° NW 17:59:28 47° NW 17:59:28 47° NW
